Orbital Elements at Epoch 2459200.5 (2020-Dec-17.0) TDB
Reference: JPL 4 (heliocentric ecliptic J2000)
Element | Value | Uncertainty (1-sigma) | Units |
e | .5879539287754322 | 0.011073 | |
a | 93.03264349201113 | 1.989 | au |
q | 38.33373524651905 | 0.21191 | au |
i | 15.41954139055333 | 0.00289 | deg |
node | 302.9412900977339 | 0.015172 | deg |
peri | 131.9114218691347 | 0.34699 | deg |
M | 36.66393415204114 | 1.5513 | deg |
tp | 2425820.369321068378 (1929-Jul-27.86932107) | 342.05 | TDB |
period | 327756.6175681773 897.35 | 10511 28.78 | d yr |
n | .001098375992134211 | 3.5225e-05 | deg/d |
Q | 147.7315517375032 | 3.1585 | au |
|
| | Orbit Determination Parameters
Additional Information
|